This is the latest recevied weather packets stored in our database for station/object W9KHP-1. If no packets are shown the sender has not sent any weather packets the latest 10 day(s).
| Time | Temp. | Humidity | Pressure | Rain* | Wind** | Luminosity | Snow |
|---|---|---|---|---|---|---|---|
| 1778096159 | 16.67° C | 59% | 1017 hPa | 0 mm | - | 618 W/m² | - |
| 1778095856 | 16.11° C | 63% | 1017 hPa | 0 mm | - | 545 W/m² | - |
| 1778095553 | 16.11° C | 63% | 1017 hPa | 0 mm | - | 477 W/m² | - |
| 1778095249 | 16.11° C | 63% | 1016.7 hPa | 0 mm | - | 618 W/m² | - |
| 1778094945 | 16.11° C | 61% | 1017 hPa | 0 mm | - | 675 W/m² | - |
| 1778094636 | 16.11° C | 60% | 1016.8 hPa | 0 mm | - | 465 W/m² | - |
| 1778094334 | 15.56° C | 62% | 1017 hPa | 0 mm | - | 481 W/m² | - |
| 1778094031 | 16.67° C | 59% | 1017.2 hPa | 0 mm | - | 414 W/m² | - |
| 1778093728 | 16.67° C | 63% | 1017.2 hPa | 0 mm | - | 609 W/m² | - |
| 1778093424 | 16.11° C | 61% | 1017.3 hPa | 0 mm | - | 698 W/m² | - |
| 1778093122 | 16.11° C | 62% | 1017.1 hPa | 0 mm | - | 646 W/m² | - |
| 1778092819 | 15° C | 65% | 1017.3 hPa | 0 mm | - | 586 W/m² | - |
| 1778092514 | 15° C | 67% | 1017.1 hPa | 0 mm | - | 462 W/m² | - |
| 1778092211 | 15° C | 64% | 1017.2 hPa | 0 mm | - | 344 W/m² | - |
| 1778091909 | 15° C | 67% | 1017.3 hPa | 0 mm | - | 328 W/m² | - |
| 1778091606 | 15° C | 62% | 1017.1 hPa | 0 mm | - | 361 W/m² | - |
| 1778091304 | 15° C | 63% | 1017.1 hPa | 0 mm | - | 385 W/m² | - |
| 1778091000 | 15.56° C | 66% | 1017 hPa | 0 mm | - | 522 W/m² | - |
| 1778090697 | 15° C | 65% | 1016.8 hPa | 0 mm | - | 552 W/m² | - |
| 1778090394 | 15.56° C | 67% | 1017 hPa | 0 mm | - | 501 W/m² | - |
| 1778090089 | 15.56° C | 62% | 1017.1 hPa | 0 mm | - | 348 W/m² | - |
| 1778089786 | 15.56° C | 64% | 1016.6 hPa | 0 mm | - | 500 W/m² | - |
| 1778089484 | 15° C | 65% | 1016.6 hPa | 0 mm | - | 489 W/m² | - |
| 1778089180 | 15° C | 65% | 1016.6 hPa | 0 mm | - | 450 W/m² | - |
| 1778088879 | 15° C | 64% | 1016.7 hPa | 0 mm | - | 459 W/m² | - |
* Rain latest hour (hover to see other rain measurements)
** Current wind speed in m/s (hover to see current wind gust speed)